Regional Weather Roundup
Issued by NWS

Home | Current Version | Previous Version | Graphics & Text | Print | Product List | Glossary On
Versions: 1 2 3 4 5 6 7 8 9 10 11 12 13 14 15 16 17 18 19 20 21 22 23 24 25 26 27 28 29 30 31 32 33 34 35 36 37 38 39 40 41 42 43 44 45 46 47 48 49 50
000
ASUS43 KTOP 281259
RWRKS

WEATHER ROUNDUP FOR KANSAS
NATIONAL WEATHER SERVICE GOODLAND KS
800 AM CDT WED SEP 28 2016

NOTE:  "FAIR" INDICATES FEW OR NO CLOUDS BELOW 12,000 FEET WITH NO
SIGNIFICANT WEATHER AND/OR OBSTRUCTIONS TO VISIBILITY.

KSZ001>006-013>018-027>032-041>047-281400-
NORTHWEST KANSAS

CITY           SKY/WX    TMP DP  RH WIND       PRES   REMARKS
GOODLAND       CLEAR     46  37  71 W8        30.19R
HAYS           CLEAR     52  39  62 N7        30.10R
HILL CITY      CLEAR     49  45  86 NW6       30.13R
RUSSELL        CLEAR     52  48  86 N9        30.08R
$$

KSZ061>065-074>080-084>089-281400-
SOUTHWEST KANSAS

CITY           SKY/WX    TMP DP  RH WIND       PRES   REMARKS
DODGE CITY     CLEAR     52  41  66 N7        30.10R
ELKHART          N/A     55  34  45 W8          N/A
GARDEN CITY    CLEAR     55  40  56 NE12      30.11R
GREAT BEND     CLEAR     54  41  62 NW7       30.08R
LIBERAL        CLEAR     52  36  54 N7        30.13R
$$

KSZ066>073-081>083-090>101-281400-
SOUTHEAST KANSAS

CITY           SKY/WX    TMP DP  RH WIND       PRES   REMARKS
CHANUTE        CLEAR     57  53  86 NW5       29.95R
COFFEYVILLE    CLEAR     54  51  90 CALM      29.95R
HUTCHINSON     CLEAR     60  50  69 N12       30.02R
MEDICINE LODGE   N/A     52  47  83 NW6       30.02R
NEWTON         CLEAR     59  51  75 N10       30.01R
PARSONS        CLEAR     51  50  96 CALM      29.96R
WICHITA INTL   CLEAR     61  52  72 N13       30.00R
WICHITA JABRA  LGT RAIN  59  53  80 N9        30.00R
WINFIELD       CLEAR     57  52  83 W3        30.00R
$$

KSZ007>012-019>026-033>040-048>060-102>105-281400-
NORTHEAST KANSAS

CITY           SKY/WX    TMP DP  RH WIND       PRES   REMARKS
CONCORDIA      CLEAR     54  45  71 N9        30.08R
EMPORIA        CLEAR     57  53  86 NW7       29.99R
LAWRENCE       CLEAR     57  49  74 N9        29.99R
MANHATTAN      CLEAR     57  49  74 N3        30.03R
OLATHE IND     CLEAR     56  50  80 N12       29.99R
OLATHE EXE     CLEAR     58  46  64 N10       29.98R
SALINA         PTCLDY    56  50  80 NW8       30.06R
TOPEKA BILLARD CLEAR     56  48  74 N10       30.01R
TOPEKA FORBES  CLEAR     58  48  69 N12       30.00R
$$




USA.gov is the U.S. government's official web portal to all federal, state and local government web resources and services.